[[{"header":{"parameterUnit":"m.s-1","parameterCategory":1,"la1":30.2991,"la2":30.254,"lo1":-89.0895,"lo2":-89.0444,"dy":0.0017,"dx":0.0017,"nx":28,"ny":28,"refTime":"2024-04-16T09:00:00:Z","depth":0,"parameterNumber":2,"parameterNumberName":"U-component_of_WINDS"},"data":[0,0,0,0,0,0,0,0,0,0,0,0,0,0,0,0,0,0,0,0,0,0,0,0,0,0,0,0,0,0,0,0,0,0,0,0,0,0,0,0,0,0,0,0,0,0,0,0,0,0,0,0,0,0,0,0,0,0,-1.4187,-1.4187,0,-1.4226,-1.4227,-1.4227,-1.424,-1.4239,-1.4239,-1.4239,-1.4282,-1.4283,-1.4285,0,0,0,0,0,0,0,0,0,0,0,0,0,-1.4123,-1.4124,-1.4186,-1.4187,-1.4187,-1.4226,-1.4227,-1.4227,-1.424,-1.4239,-1.4239,-1.4239,-1.4282,-1.4283,-1.4285,0,0,0,0,0,0,0,0,0,0,0,0,0,-1.4156,-1.4125,-1.4186,-1.4198,-1.42,-1.4226,-1.4227,-1.4228,-1.424,-1.4239,-1.4239,-1.4239,-1.4281,-1.4283,-1.4285,-1.4304,0,0,-1.4291,-1.4292,0,0,0,0,0,0,0,0,-1.4154,-1.4158,-1.4196,-1.4197,-1.4199,-1.4228,-1.422,-1.4253,-1.424,-1.4225,-1.4239,-1.4239,-1.4264,-1.4268,-1.4276,-1.4306,-1.4308,-1.4291,-1.4293,-1.4294,-1.4294,0,0,0,0,0,0,0,-1.4152,-1.4156,-1.4202,-1.4196,-1.4198,-1.4202,-1.4207,-1.4227,-1.4246,-1.4226,-1.4227,-1.4231,-1.4265,-1.4274,-1.4277,-1.4308,-1.4291,-1.4293,-1.4294,-1.4295,-1.4355,-1.4356,0,0,0,0,0,0,-1.4147,-1.4154,-1.4201,-1.4204,-1.4175,-1.4204,-1.4208,-1.4219,-1.4246,-1.4249,-1.4231,-1.4232,-1.4271,-1.4275,-1.4279,-1.4302,-1.4293,-1.4295,-1.4297,-1.4355,-1.4355,-1.4356,0,0,0,0,0,0,-1.4146,-1.4151,-1.4199,-1.4179,-1.4186,-1.4205,-1.4217,-1.422,-1.4229,-1.425,-1.4253,-1.4237,-1.4271,-1.4276,-1.4297,-1.4304,-1.4296,-1.4298,-1.4354,-1.4355,-1.4356,-1.4349,0,0,0,0,0,0,-1.4144,-1.415,-1.4157,-1.4179,-1.4187,-1.4217,-1.4217,-1.4221,-1.4232,-1.4232,-1.4256,-1.4259,-1.4271,-1.4294,-1.4299,-1.4306,-1.43,-1.4354,-1.4355,-1.4355,-1.4348,-1.4349,-1.4349,0,0,0,0,0,-1.4141,-1.4154,-1.4157,-1.4163,-1.4195,-1.4217,-1.4221,-1.4233,-1.4232,-1.4239,-1.4253,-1.4259,-1.4302,-1.4296,-1.4302,-1.431,-1.4354,-1.4354,-1.4355,-1.4348,-1.4349,-1.4349,0,0,0,0,0,0,-1.4133,-1.4157,-1.4161,-1.4181,-1.4197,-1.4219,-1.4228,-1.4234,-1.4251,-1.4251,-1.4266,-1.4271,-1.4291,-1.4303,-1.4296,-1.4329,-1.4328,-1.433,-1.4321,-1.4322,-1.4322,-1.4319,-1.4301,0,0,0,0,0,-1.4133,-1.4148,-1.4169,-1.4184,-1.4192,-1.4209,-1.4219,-1.4227,-1.4244,-1.4251,-1.4266,-1.4283,-1.4301,-1.4312,-1.4329,-1.435,-1.4356,-1.4359,-1.4359,-1.436,-1.4361,-1.4373,-1.4375,-1.4359,-1.4359,-1.4359,0,0,-1.4134,-1.4149,-1.4158,-1.4183,-1.4196,-1.4212,-1.4214,-1.4231,-1.4243,-1.4254,-1.4274,-1.4286,-1.4306,-1.4327,-1.4338,-1.4338,-1.4367,-1.4361,-1.4361,-1.4362,-1.4374,-1.4376,-1.4377,-1.4359,-1.4359,-1.4359,0,0,-1.4144,-1.4157,-1.4171,-1.4184,-1.4204,-1.4215,-1.4218,-1.4239,-1.4247,-1.4268,-1.4277,-1.4292,-1.4322,-1.4336,-1.4347,-1.4362,-1.4368,-1.4367,-1.437,-1.4382,-1.4383,-1.4384,-1.4389,-1.4391,-1.4369,-1.4369,-1.4369,0,-1.4143,-1.4166,-1.4178,-1.4194,-1.4205,-1.4215,-1.423,-1.4242,-1.4267,-1.4274,-1.4274,-1.4312,-1.4326,-1.4351,-1.4354,-1.4363,-1.4368,-1.4364,-1.4381,-1.4383,-1.4384,-1.4389,-1.4391,-1.4369,-1.4369,-1.4369,-1.4369,0,-1.4164,-1.4179,-1.4189,-1.4211,-1.4224,-1.4239,-1.4254,-1.4265,-1.4273,-1.4284,-1.4305,-1.4323,-1.4344,-1.4351,-1.4358,-1.4376,-1.4376,-1.4378,-1.4377,-1.4385,-1.439,-1.4392,-1.4368,-1.4368,-1.4369,-1.4369,0,0,-1.4169,-1.4197,-1.4201,-1.4211,-1.4233,-1.4246,-1.4262,-1.4282,-1.4291,-1.4308,-1.4322,-1.4348,-1.435,-1.4362,-1.4372,-1.4382,-1.4393,-1.4383,-1.4384,-1.4384,-1.4414,-1.4412,-1.4414,-1.4397,-1.4398,-1.4398,-1.4412,0,-1.4181,-1.4209,-1.4221,-1.4244,-1.4259,-1.4269,-1.4283,-1.4298,-1.431,-1.4325,-1.4338,-1.4355,-1.4357,-1.4364,-1.4375,-1.4389,-1.4399,-1.4388,-1.4411,-1.4411,-1.4405,-1.4417,-1.4414,-1.4427,-1.4415,-1.4415,-1.4415,0,-1.4199,-1.4215,-1.4239,-1.4259,-1.4266,-1.4278,-1.4297,-1.4312,-1.433,-1.4337,-1.4351,-1.436,-1.4378,-1.4376,-1.4402,-1.4394,-1.4404,-1.4413,-1.4414,-1.4416,-1.4413,-1.4419,-1.4431,-1.4433,-1.4419,-1.4418,-1.4418,0,-1.42,-1.4227,-1.4245,-1.4254,-1.4278,-1.4287,-1.4297,-1.4315,-1.4326,-1.4344,-1.4351,-1.437,-1.4381,-1.4396,-1.441,-1.4408,-1.4434,-1.4434,-1.4442,-1.4441,-1.4446,-1.4446,-1.446,-1.4453,-1.4453,-1.4453,-1.4453,0,-1.4212,-1.4226,-1.4246,-1.4257,-1.4273,-1.4287,-1.4304,-1.4315,-1.4331,-1.4345,-1.4356,-1.4369,-1.4387,-1.4402,-1.4414,-1.4433,-1.4438,-1.4445,-1.4448,-1.4444,-1.4443,-1.445,-1.4449,-1.4454,-1.4454,-1.4454,-1.4454,0,-1.4215,-1.4229,-1.4249,-1.427,-1.4276,-1.4287,-1.4306,-1.4318,-1.4329,-1.4347,-1.4352,-1.4371,-1.439,-1.4405,-1.4431,-1.4438,-1.4458,-1.4462,-1.4452,-1.4453,-1.446,-1.4459,-1.4479,-1.4483,-1.4474,-1.4474,-1.4474,0,-1.4222,-1.4233,-1.4255,-1.4265,-1.4275,-1.4291,-1.4302,-1.4316,-1.4328,-1.435,-1.4359,-1.4378,-1.4394,-1.4425,-1.4441,-1.446,-1.4464,-1.447,-1.4467,-1.4463,-1.4464,-1.4463,-1.4464,-1.447,-1.447,-1.447,-1.447,0,-1.4232,-1.4238,-1.4253,-1.4271,-1.4284,-1.4299,-1.4314,-1.4322,-1.4339,-1.4352,-1.4371,-1.4383,-1.4409,-1.4428,-1.4449,-1.4462,-1.4469,-1.4471,-1.4474,-1.447,-1.4463,-1.4467,-1.4452,-1.447,-1.447,-1.447,-1.447,-1.447,-1.4237,-1.4248,-1.4265,-1.4281,-1.4294,-1.4308,-1.432,-1.4333,-1.4349,-1.437,-1.4378,-1.4397,-1.4416,-1.4445,-1.4457,-1.4473,-1.4474,-1.4478,-1.4479,-1.448,-1.4479,-1.4461,-1.4477,-1.4477,-1.4477,-1.4477,-1.4477,0,-1.4248,-1.4259,-1.4274,-1.4295,-1.4308,-1.4313,-1.4331,-1.4342,-1.4358,-1.4375,-1.439,-1.4412,-1.4431,-1.4449,-1.4469,-1.4479,-1.4483,-1.4484,-1.4483,-1.4486,-1.4477,-1.4473,-1.448,-1.448,-1.448,-1.448,-1.448,-1.448,-1.4255,-1.4272,-1.4281,-1.4305,-1.4317,-1.4335,-1.4344,-1.4358,-1.4371,-1.4394,-1.441,-1.4421,-1.4438,-1.446,-1.4478,-1.4483,-1.4489,-1.4489,-1.4495,-1.4487,-1.4486,-1.4486,-1.4482,-1.4491,-1.4491,-1.4502,-1.4502,-1.4502]},{"header":{"parameterUnit":"m.s-1","parameterCategory":1,"la1":30.2991,"la2":30.254,"lo1":-89.0895,"lo2":-89.0444,"dy":0.0017,"dx":0.0017,"nx":28,"ny":28,"refTime":"2024-04-16T09:00:00:Z","depth":0,"parameterNumber":3,"parameterNumberName":"V-component_of_WINDS"},"data":[0,0,0,0,0,0,0,0,0,0,0,0,0,0,0,0,0,0,0,0,0,0,0,0,0,0,0,0,0,0,0,0,0,0,0,0,0,0,0,0,0,0,0,0,0,0,0,0,0,0,0,0,0,0,0,0,0,0,4.4422,4.4422,0,4.4418,4.4418,4.4418,4.4331,4.4328,4.4326,4.4324,4.4319,4.4321,4.4323,0,0,0,0,0,0,0,0,0,0,0,0,0,4.4356,4.4357,4.4422,4.4422,4.4422,4.4418,4.4418,4.4417,4.4331,4.4328,4.4326,4.4323,4.4318,4.4321,4.4323,0,0,0,0,0,0,0,0,0,0,0,0,0,4.4371,4.4358,4.4422,4.4378,4.4374,4.4418,4.4418,4.4417,4.4332,4.4328,4.4325,4.4322,4.4318,4.432,4.4323,4.4408,0,0,4.4332,4.4333,0,0,0,0,0,0,0,0,4.437,4.4374,4.4385,4.4381,4.4377,4.4371,4.4392,4.4414,4.4332,4.4348,4.4324,4.432,4.4339,4.434,4.4346,4.4408,4.4407,4.4332,4.4334,4.4335,4.4336,0,0,0,0,0,0,0,4.4369,4.4373,4.442,4.4385,4.438,4.4359,4.4357,4.4396,4.4362,4.4346,4.434,4.4341,4.4336,4.4344,4.4346,4.4407,4.4332,4.4335,4.4337,4.4338,4.4539,4.4542,0,0,0,0,0,0,4.4375,4.4373,4.442,4.442,4.4366,4.4363,4.4361,4.4377,4.4362,4.4356,4.4344,4.4337,4.4341,4.4342,4.4345,4.4444,4.4335,4.4338,4.434,4.4535,4.454,4.4544,0,0,0,0,0,0,4.4373,4.438,4.4421,4.4395,4.4399,4.4368,4.4385,4.4378,4.4386,4.4359,4.4353,4.4358,4.4338,4.4341,4.4393,4.4443,4.4339,4.4342,4.4531,4.4537,4.4542,4.4643,0,0,0,0,0,0,4.4372,4.438,4.4411,4.4396,4.44,4.4469,4.4388,4.4381,4.4391,4.4382,4.4371,4.4366,4.4336,4.4389,4.4396,4.4445,4.4344,4.4527,4.4534,4.454,4.4635,4.4651,4.4665,0,0,0,0,0,4.437,4.444,4.4414,4.442,4.4439,4.4472,4.4474,4.4438,4.4395,4.4427,4.441,4.4366,4.4436,4.4395,4.4402,4.4453,4.4523,4.4532,4.4539,4.4628,4.4648,4.4664,0,0,0,0,0,0,4.4461,4.4437,4.4408,4.4475,4.4476,4.4457,4.4496,4.446,4.4474,4.4465,4.4419,4.4417,4.4477,4.447,4.4425,4.4534,4.4472,4.4482,4.4537,4.4555,4.457,4.4571,4.4347,0,0,0,0,0,4.4489,4.4517,4.4495,4.4556,4.4558,4.4528,4.454,4.4513,4.4512,4.4512,4.4499,4.4501,4.4523,4.4539,4.4558,4.4633,4.463,4.4671,4.4686,4.4699,4.4708,4.4749,4.4767,4.457,4.457,4.457,0,0,4.4546,4.4537,4.4558,4.4574,4.4572,4.4603,4.4529,4.4564,4.4587,4.4518,4.4567,4.4557,4.4556,4.4621,4.4648,4.4616,4.4761,4.4709,4.4719,4.4721,4.4759,4.4777,4.4794,4.4576,4.4575,4.4574,0,0,4.4668,4.4663,4.4715,4.4714,4.4712,4.4692,4.4704,4.4691,4.4683,4.4731,4.468,4.4706,4.4745,4.4747,4.4753,4.4876,4.4837,4.4884,4.4962,4.5002,4.5018,4.5031,4.5076,4.5093,4.4893,4.4893,4.4893,0,4.474,4.4785,4.4745,4.4785,4.4794,4.4733,4.4785,4.4787,4.4791,4.4799,4.4763,4.4812,4.4806,4.4871,4.4902,4.4908,4.4921,4.4885,4.5019,4.5032,4.5044,4.5086,4.5103,4.4899,4.4898,4.4898,4.4897,0,4.4874,4.4906,4.4948,4.4955,4.4968,4.5014,4.4981,4.5,4.4971,4.4955,4.5005,4.4997,4.5014,4.5027,4.4999,4.5088,4.5069,4.5026,4.4963,4.5069,4.5108,4.5124,4.4907,4.4905,4.4903,4.4902,0,0,4.5052,4.5038,4.5054,4.5057,4.5051,4.5075,4.5118,4.5135,4.5152,4.5157,4.5193,4.5228,4.5189,4.5196,4.5168,4.5203,4.5303,4.5156,4.5156,4.5185,4.5403,4.5435,4.5455,4.5276,4.5279,4.5282,4.5403,0,4.5171,4.5244,4.521,4.5287,4.5317,4.526,4.5298,4.5299,4.5284,4.5307,4.5291,4.5317,4.5264,4.5268,4.53,4.5284,4.5346,4.5275,4.531,4.5311,4.5313,4.5475,4.5509,4.5624,4.5418,4.5421,4.5422,0,4.5318,4.5331,4.5412,4.5402,4.5413,4.5447,4.5461,4.5483,4.5483,4.547,4.5479,4.5443,4.5484,4.5421,4.5479,4.5431,4.5443,4.5438,4.5441,4.5444,4.5374,4.5483,4.566,4.5678,4.5446,4.5444,4.5442,0,4.5442,4.5479,4.5532,4.5536,4.5526,4.5552,4.5548,4.5545,4.5557,4.5569,4.5577,4.5594,4.5603,4.5616,4.5586,4.5542,4.5648,4.5582,4.5639,4.564,4.5665,4.5664,4.5847,4.5671,4.5671,4.5671,4.567,0,4.5578,4.563,4.5588,4.5621,4.5677,4.5638,4.5695,4.5685,4.5683,4.5713,4.5665,4.5694,4.5652,4.5677,4.5653,4.5705,4.5709,4.5701,4.5694,4.5706,4.5707,4.5714,4.5705,4.5675,4.5674,4.5673,4.5672,0,4.5726,4.57,4.5755,4.574,4.5738,4.5781,4.5768,4.5798,4.5781,4.582,4.5827,4.5799,4.5827,4.5798,4.5822,4.5806,4.5877,4.5858,4.5878,4.5873,4.5932,4.5928,4.6127,4.6152,4.5959,4.5961,4.5963,0,4.5816,4.5854,4.5845,4.5862,4.5862,4.589,4.5903,4.5866,4.5882,4.5885,4.5915,4.5938,4.5955,4.6002,4.5984,4.6003,4.5985,4.6054,4.5988,4.5999,4.5988,4.5986,4.5991,4.6068,4.607,4.6072,4.6073,0,4.5977,4.5963,4.5984,4.6001,4.6019,4.603,4.6038,4.6054,4.6016,4.6036,4.6064,4.6078,4.6104,4.6128,4.6142,4.6138,4.6101,4.6094,4.6109,4.6122,4.6132,4.6129,4.5916,4.609,4.6088,4.6087,4.6086,4.6085,4.6099,4.6131,4.613,4.6156,4.6158,4.6167,4.6195,4.6181,4.6204,4.6223,4.6199,4.6234,4.6234,4.6249,4.625,4.6277,4.6248,4.6269,4.6274,4.628,4.629,4.6127,4.6279,4.6279,4.6278,4.6278,4.6277,0,4.6259,4.6256,4.628,4.6293,4.6314,4.6276,4.6283,4.6302,4.6334,4.6337,4.6355,4.6388,4.6411,4.6396,4.6416,4.644,4.6424,4.6447,4.6445,4.6446,4.6314,4.63,4.6461,4.6461,4.6461,4.6461,4.646,4.646,4.6345,4.6398,4.6384,4.6438,4.6434,4.6468,4.6476,4.6484,4.6486,4.6525,4.6545,4.6535,4.6531,4.6551,4.6571,4.6566,4.6576,4.6606,4.6595,4.6473,4.6455,4.6437,4.6424,4.6608,4.6609,4.6725,4.6726,4.6727]}]]